Participated 1 time
in 1983
Eric Dall'Armelina, France
Tour de France 2026 starts from Barcelona, Spain in

Stats and Facts from
Tour de France.

2026   2025   2024   2023  2022  2021  2020  2019   2018  2017   2016   2015  2014  2013   2012   2011  2010   2009   2008   2007   2006   2005   2004   2003   2002   2001   2000   1999   1998   1997  1996   1995   1994   1993   1992  1991   1990   1989   1988   1987   1986   1985   1984   1983  1982  1981   1980   1979  1978  1977   1976  1975  1974  1973   1972   1971   1970  1969   1968   1967   1966   1965  1964  1963   1962   1961   1960   1959   1958   1957  1956   1955   1954   1953   1952  1951  1950  1949   1948  1947  1939   1938   1937   1936   1935   1934   1933  1932   1931   1930  1929   1928   1927   1926  1925  1924  1923   1922   1921   1920   1919  1914   1913   1912   1911   1910  1909   1908   1907   1906  1905  1904   1903 

Tourstats
Sitemap

After stage 21 - 2025:
 16451 starters.
  5463 different riders.
  689 teams.
  2398 stages.
  470 restdays.
  466506.50 km.
  5925 abandoned riders.

Click map for 2006 route.
Facts from Tour de France 2006
  |   Stages.  |   Stage winners.  |   Days in jerseys.  |   Teams.  |   All riders.  |   All riders by age.  |   All riders from.  |  

  |   Rookies.  |   Withdrawls.  |   Average speed.  |   GC.  |   Polka  |   Green  |   White  |   Summits. (In tour)  |   Miscellaneous.  |  

Stage 7 on July 8th. 2006
Pick a stage:  Pro  1  2  3  4  5  6  7  8  9  10  11  12  13  14  15  16  17  18  19  20  

After stage 7:    Serhiy Honchar  
  Saint-GrégoireRennes | Dist: 52.00km. | Winner: Serhiy Honchar

Podium

Average speed for all riders in stage:  47,189 km./hr.

1
 Serhiy Honchar  T-Mobile01h 01' 43"=50,554  km/h

2
 Floyd Landis  Phonak Hearing Systems01h 01' 45"+  00:00:02 =50,526  km/h

3
 Sebastian Lang  Gerolsteiner01h 01' 46"+  00:00:03 =50,513  km/h

4  Michael Rogers  T-Mobile01h 02' 06"+  00:00:23 =50,242  km/h

5  Gustav-Erik Larsson  Francaise Des Jeux01h 02' 16"+  00:00:33 =50,107  km/h

6  Patrik Sinkewitz  T-Mobile01h 02' 21"+  00:00:38 =50,040  km/h

7  Markus Fothen  Gerolsteiner01h 02' 24"+  00:00:41 =50,000  km/h

8  Andréas  Klöden  T-Mobile01h 02' 25"+  00:00:42 =49,987  km/h

9  Denis Menchov  Rabobank01h 02' 26"+  00:00:43 =49,973  km/h

10  Joost Posthuma  Rabobank01h 02' 27"+  00:00:44 =49,960  km/h

11  Cadel Evans  Davitamon-Lotto01h 02' 31"+  00:00:48 =49,907  km/h

12  Vladimir Karpets  Illes Balears-Caisse d Epargne01h 02' 34"+  00:00:51 =49,867  km/h

13  David Zabriskie  CSC01h 02' 39"+  00:00:56 =49,800  km/h

14  Matthias Kessler  T-Mobile01h 02' 45"+  00:01:02 =49,721  km/h

15  Christophe Moreau  AG2R-Decathlon01h 02' 46"+  00:01:03 =49,708  km/h

16  Eddy Mazzoleni  T-Mobile01h 02' 47"+  00:01:04 =49,695  km/h

17  Victor Hugo Peña  Phonak Hearing Systems01h 02' 51"+  00:01:08 =49,642  km/h

18  Carlos Sastre  CSC01h 02' 53"+  00:01:10 =49,616  km/h

19  Paolo Savoldelli  Discovery Channel01h 02' 54"+  00:01:11 =49,603  km/h

20  Thomas Löfkvist  Francaise Des Jeux01h 03' 18"+  00:01:35 =49,289  km/h

21  Bert Grabsch  Phonak Hearing Systems01h 03' 20"+  00:01:37 =49,263  km/h

22  Viatcheslav Ekimov  Discovery Channel01h 03' 22"+  00:01:39 =49,237  km/h

23  Óscar Pereiro  Illes Balears-Caisse d Epargne01h 03' 23"+  00:01:40 =49,224  km/h

24  George Hincapie  Discovery Channel01h 03' 24"+  00:01:41 =49,211  km/h

25  Didier Rous  Bouygues Telecom01h 03' 33"+  00:01:50 =49,095  km/h

26  José-Luis Rubiera  Discovery Channel01h 03' 48"+  00:02:05 =48,903  km/h

27  Sylvain Chavanel  Cofidis Credit Par Telephone01h 03' 48"+  00:02:05 =48,903  km/h

28  Bradley Wiggins  Cofidis Credit Par Telephone01h 03' 52"+  00:02:09 =48,852  km/h

29  Egoi Martínez  Discovery Channel01h 03' 55"+  00:02:12 =48,814  km/h

30  Christian Vandevelde  CSC01h 03' 56"+  00:02:13 =48,801  km/h

31  Andriy Grivko  Milram01h 03' 57"+  00:02:14 =48,788  km/h

32  Yaroslav Popovych  Discovery Channel01h 03' 59"+  00:02:16 =48,763  km/h

33  Mikel Astarloza  AG2R-Decathlon01h 04' 00"+  00:02:17 =48,750  km/h

34  Giuseppe Guerini  T-Mobile01h 04' 02"+  00:02:19 =48,725  km/h

35  Sandy Casar  Francaise Des Jeux01h 04' 10"+  00:02:27 =48,623  km/h

36  Haimar  Zubeldía  Euskaltel-Euskadi01h 04' 14"+  00:02:31 =48,573  km/h

37  David Millar  Saunier Duval-Prodir01h 04' 16"+  00:02:33 =48,548  km/h

38  Cyril Dessel  AG2R-Decathlon01h 04' 24"+  00:02:41 =48,447  km/h

39  Marzio Bruseghin  Lampre-Fondital01h 04' 25"+  00:02:42 =48,435  km/h

40  Alessandro Ballan  Lampre-Fondital01h 04' 31"+  00:02:48 =48,360  km/h

41  Tom Boonen  Quick Step-Innergetic01h 04' 34"+  00:02:51 =48,322  km/h

42  José Azevedo  Discovery Channel01h 04' 37"+  00:02:54 =48,285  km/h

43  Ronny Scholz  Gerolsteiner01h 04' 39"+  00:02:56 =48,260  km/h

44  Georg Totschnig  Gerolsteiner01h 04' 42"+  00:02:59 =48,223  km/h

45  Pavel Padrnos  Discovery Channel01h 04' 44"+  00:03:01 =48,198  km/h

46  Thomas  Voeckler  Bouygues Telecom01h 04' 46"+  00:03:03 =48,173  km/h

47  Christian Knees  Milram01h 04' 53"+  00:03:10 =48,086  km/h

48  Christopher Horner  Davitamon-Lotto01h 04' 56"+  00:03:13 =48,049  km/h

49  Magnus Bäckstedt  Liquigas01h 04' 57"+  00:03:14 =48,037  km/h

50  Jérôme Pineau  Bouygues Telecom01h 05' 01"+  00:03:18 =47,988  km/h

51  Pierrick  Fédrigo  Bouygues Telecom01h 05' 01"+  00:03:18 =47,988  km/h

52  Axel Merckx  Phonak Hearing Systems01h 05' 01"+  00:03:18 =47,988  km/h

53  Daniele Bennati  Lampre-Fondital01h 05' 06"+  00:03:23 =47,926  km/h

54  Xabier Zandio  Illes Balears-Caisse d Epargne01h 05' 07"+  00:03:24 =47,914  km/h

55  José Garcia Acosta  Illes Balears-Caisse d Epargne01h 05' 09"+  00:03:26 =47,889  km/h

56  Cristian Moreni  Cofidis Credit Par Telephone01h 05' 11"+  00:03:28 =47,865  km/h

57  Koos Moerenhout  Phonak Hearing Systems01h 05' 17"+  00:03:34 =47,792  km/h

58  Laurent Lefèvre  Bouygues Telecom01h 05' 17"+  00:03:34 =47,792  km/h

59  Benoit Vaugrenard  Francaise Des Jeux01h 05' 21"+  00:03:38 =47,743  km/h

60  Fabian Wegmann  Gerolsteiner01h 05' 21"+  00:03:38 =47,743  km/h

61  José Rujano  Quick Step-Innergetic01h 05' 35"+  00:03:52 =47,573  km/h

62  Riccardo Riccò  Saunier Duval-Prodir01h 05' 36"+  00:03:53 =47,561  km/h

63  José Ángel Gomez  Saunier Duval-Prodir01h 05' 36"+  00:03:53 =47,561  km/h

64  Bram de Groot  Rabobank01h 05' 37"+  00:03:54 =47,549  km/h

65  Iván Parra  Cofidis Credit Par Telephone01h 05' 42"+  00:03:59 =47,489  km/h

66  Michael Boogerd  Rabobank01h 05' 47"+  00:04:04 =47,428  km/h

67  Nicolas Portal  Illes Balears-Caisse d Epargne01h 05' 47"+  00:04:04 =47,428  km/h

68  Christophe Brandt  Davitamon-Lotto01h 05' 52"+  00:04:09 =47,368  km/h

69  Francisco Ventoso  Saunier Duval-Prodir01h 05' 54"+  00:04:11 =47,344  km/h

70  Tadej Valjavec  Lampre-Fondital01h 05' 55"+  00:04:12 =47,332  km/h

71  Francisco Javier Vila  Lampre-Fondital01h 05' 56"+  00:04:13 =47,321  km/h

72  Fränk Schleck  CSC01h 05' 58"+  00:04:15 =47,297  km/h

73  Laurent Brochard  Bouygues Telecom01h 05' 59"+  00:04:16 =47,285  km/h

74  Stefano Garzelli  Liquigas01h 06' 00"+  00:04:17 =47,273  km/h

75  Gilberto Simoni  Saunier Duval-Prodir01h 06' 01"+  00:04:18 =47,261  km/h

76  Michael Albasini  Liquigas01h 06' 03"+  00:04:20 =47,237  km/h

77  Matthieu Sprick  Bouygues Telecom01h 06' 09"+  00:04:26 =47,166  km/h

78  Maxim Iglinskiy  Milram01h 06' 10"+  00:04:27 =47,154  km/h

79  Mario Aerts  Davitamon-Lotto01h 06' 10"+  00:04:27 =47,154  km/h

80  Juan Miguel Mercado  Agritubel01h 06' 10"+  00:04:27 =47,154  km/h

81  Johan Vansummeren  Davitamon-Lotto01h 06' 14"+  00:04:31 =47,106  km/h

82  Iban Mayo  Euskaltel-Euskadi01h 06' 19"+  00:04:36 =47,047  km/h

83  David Arroyo  Illes Balears-Caisse d Epargne01h 06' 21"+  00:04:38 =47,023  km/h

84  Ralf Grabsch  Milram01h 06' 23"+  00:04:40 =47,000  km/h

85  David Cañada  Saunier Duval-Prodir01h 06' 24"+  00:04:41 =46,988  km/h

86  Carlos Da Cruz  Francaise Des Jeux01h 06' 25"+  00:04:42 =46,976  km/h

87  Iker Camaño  Euskaltel-Euskadi01h 06' 25"+  00:04:42 =46,976  km/h

88  Simon Gerrans  AG2R-Decathlon01h 06' 26"+  00:04:43 =46,964  km/h

89  Miguel Angel Martín  Phonak Hearing Systems01h 06' 27"+  00:04:44 =46,953  km/h

90  Rik Verbrugghe  Cofidis Credit Par Telephone01h 06' 29"+  00:04:46 =46,929  km/h

91  Nicolas Jalabert  Phonak Hearing Systems01h 06' 33"+  00:04:50 =46,882  km/h

92  Giovanni Lombardi  CSC01h 06' 38"+  00:04:55 =46,823  km/h

93  Mirko Celestino  Milram01h 06' 40"+  00:04:57 =46,800  km/h

94  Gorka Verdugo  Euskaltel-Euskadi01h 06' 42"+  00:04:59 =46,777  km/h

95  Samuel Plouhinec  Agritubel01h 06' 47"+  00:05:04 =46,718  km/h

96  Levi Leipheimer  Gerolsteiner01h 06' 48"+  00:05:05 =46,707  km/h

97  Alexandre Botcharov  Credit Agricole01h 06' 49"+  00:05:06 =46,695  km/h

98  Stuart O'Grady  CSC01h 06' 50"+  00:05:07 =46,683  km/h

99  José Alberto Martinez  Agritubel01h 06' 53"+  00:05:10 =46,648  km/h

100  Walter Bénéteau  Bouygues Telecom01h 06' 54"+  00:05:11 =46,637  km/h

101  Jose Luis Arrieta  AG2R-Decathlon01h 06' 54"+  00:05:11 =46,637  km/h

102  Alexandre Moos  Phonak Hearing Systems01h 06' 57"+  00:05:14 =46,602  km/h

103  Stéphane Goubert  AG2R-Decathlon01h 06' 58"+  00:05:15 =46,590  km/h

104  David Moncoutié  Cofidis Credit Par Telephone01h 07' 02"+  00:05:19 =46,544  km/h

105  Iñigo Landaluze  Euskaltel-Euskadi01h 07' 04"+  00:05:21 =46,521  km/h

106  Damiano Cunego  Lampre-Fondital01h 07' 05"+  00:05:22 =46,509  km/h

107  Christophe Le Mevel  Credit Agricole01h 07' 06"+  00:05:23 =46,498  km/h

108  Rubén Lobato  Saunier Duval-Prodir01h 07' 06"+  00:05:23 =46,498  km/h

109  Robbie McEwen  Davitamon-Lotto01h 07' 09"+  00:05:26 =46,463  km/h

110  Anthony Charteau  Credit Agricole01h 07' 09"+  00:05:26 =46,463  km/h

111  Robert Hunter  Phonak Hearing Systems01h 07' 10"+  00:05:27 =46,452  km/h

112  Jimmy Engoulvent  Credit Agricole01h 07' 11"+  00:05:28 =46,440  km/h

113  Paolo Tiralongo  Lampre-Fondital01h 07' 12"+  00:05:29 =46,429  km/h

114  Michael Rasmussen  Rabobank01h 07' 12"+  00:05:29 =46,429  km/h

115  Sylvain Calzati  AG2R-Decathlon01h 07' 13"+  00:05:30 =46,417  km/h

116  Björn Schröder  Milram01h 07' 14"+  00:05:31 =46,406  km/h

117  Cédric Vasseur  Quick Step-Innergetic01h 07' 17"+  00:05:34 =46,371  km/h

118  Florent Brard  Illes Balears-Caisse d Epargne01h 07' 17"+  00:05:34 =46,371  km/h

119  Pietro Caucchioli  Credit Agricole01h 07' 20"+  00:05:37 =46,337  km/h

120  Christophe Mengin  Francaise Des Jeux01h 07' 20"+  00:05:37 =46,337  km/h

121  Moisés Dueñas  Agritubel01h 07' 21"+  00:05:38 =46,325  km/h

122  David De La Fuente  Saunier Duval-Prodir01h 07' 22"+  00:05:39 =46,314  km/h

123  Christophe Laurent  Agritubel01h 07' 23"+  00:05:40 =46,302  km/h

124  Salvatore Commesso  Lampre-Fondital01h 07' 23"+  00:05:40 =46,302  km/h

125  Erik Zabel  Milram01h 07' 24"+  00:05:41 =46,291  km/h

126  Anthony Geslin  Bouygues Telecom01h 07' 25"+  00:05:42 =46,279  km/h

127  Marco Velo  Milram01h 07' 27"+  00:05:44 =46,256  km/h

128  Daniele Righi  Lampre-Fondital01h 07' 28"+  00:05:45 =46,245  km/h

129  Arnaud Coyot  Cofidis Credit Par Telephone01h 07' 30"+  00:05:47 =46,222  km/h

130  Benjamin Noval  Discovery Channel01h 07' 34"+  00:05:51 =46,177  km/h

131  Matej Mugerli  Liquigas01h 07' 35"+  00:05:52 =46,165  km/h

132  Steven de Jongh  Quick Step-Innergetic01h 07' 35"+  00:05:52 =46,165  km/h

133  Kjell Carlström  Liquigas01h 07' 39"+  00:05:56 =46,120  km/h

134  Filippo Pozzato  Quick Step-Innergetic01h 07' 46"+  00:06:03 =46,040  km/h

135  Patrice Halgand  Credit Agricole01h 07' 46"+  00:06:03 =46,040  km/h

136  Óscar Freire  Rabobank01h 07' 52"+  00:06:09 =45,972  km/h

137  Juan Manuel Garate  Quick Step-Innergetic01h 08' 03"+  00:06:20 =45,849  km/h

138  Gert Steegmans  Davitamon-Lotto01h 08' 06"+  00:06:23 =45,815  km/h

139  David Kopp  Gerolsteiner01h 08' 07"+  00:06:24 =45,804  km/h

140  Thor Hushovd  Credit Agricole01h 08' 13"+  00:06:30 =45,737  km/h

141  Pieter Weening  Rabobank01h 08' 13"+  00:06:30 =45,737  km/h

142  David Lopez  Euskaltel-Euskadi01h 08' 13"+  00:06:30 =45,737  km/h

143  Wilfried Cretskens  Quick Step-Innergetic01h 08' 13"+  00:06:30 =45,737  km/h

144  Benoit Salmon  Agritubel01h 08' 18"+  00:06:35 =45,681  km/h

145  Sébastien Joly  Francaise Des Jeux01h 08' 18"+  00:06:35 =45,681  km/h

146  Unai Etxebarria  Euskaltel-Euskadi01h 08' 18"+  00:06:35 =45,681  km/h

147  Manuel Quinziato  Liquigas01h 08' 19"+  00:06:36 =45,670  km/h

148  Stéphane Auge  Cofidis Credit Par Telephone01h 08' 19"+  00:06:36 =45,670  km/h

149  Cédric Coutouly  Agritubel01h 08' 22"+  00:06:39 =45,636  km/h

150  Juan Antonio Flecha  Rabobank01h 08' 25"+  00:06:42 =45,603  km/h

151  Samuel Dumoulin  AG2R-Decathlon01h 08' 26"+  00:06:43 =45,592  km/h

152  Sébastien Hinault  Credit Agricole01h 08' 28"+  00:06:45 =45,570  km/h

153  Isaac Gálvez  Illes Balears-Caisse d Epargne01h 08' 30"+  00:06:47 =45,547  km/h

154  Bernhard Eisel  Francaise Des Jeux01h 08' 33"+  00:06:50 =45,514  km/h

155  Iñaki Isasi  Euskaltel-Euskadi01h 08' 35"+  00:06:52 =45,492  km/h

156  Patrick Calcagni  Liquigas01h 08' 37"+  00:06:54 =45,470  km/h

157  Christophe Rinero  Saunier Duval-Prodir01h 08' 44"+  00:07:01 =45,393  km/h

158  Luca Paolini  Liquigas01h 08' 52"+  00:07:09 =45,305  km/h

159  Philippe Gilbert  Francaise Des Jeux01h 08' 55"+  00:07:12 =45,272  km/h

160  Bram Tankink  Quick Step-Innergetic01h 09' 02"+  00:07:19 =45,196  km/h

161  Eduardo Gonzalo  Agritubel01h 09' 08"+  00:07:25 =45,130  km/h

162  Jimmy Casper  Cofidis Credit Par Telephone01h 09' 08"+  00:07:25 =45,130  km/h

163  Julian Dean  Credit Agricole01h 09' 18"+  00:07:35 =45,022  km/h

164  Aitor Hernández  Euskaltel-Euskadi01h 09' 27"+  00:07:44 =44,924  km/h

165  Manuel Calvente  Agritubel01h 09' 27"+  00:07:44 =44,924  km/h

166  Matteo Tosatto  Quick Step-Innergetic01h 09' 32"+  00:07:49 =44,871  km/h

167  Wim Vansevenant  Davitamon-Lotto01h 09' 47"+  00:08:04 =44,710  km/h

168  Beat Zberg  Gerolsteiner01h 09' 54"+  00:08:11 =44,635  km/h

169  Peter Wrolich  Gerolsteiner01h 10' 39"+  00:08:56 =44,161  km/h

170  Jens Voigt  CSC01h 10' 53"+  00:09:10 =44,016  km/h


Withdrawls: 1
 RiderTeamReason
11   Bobby Julich CSCDid not finish
Todays birthdays.

1869 • Adolphe Dorion
1884 • Achille Germain
1886 • Emile Eigeldinger
1896 • Andre Léger
1907 • Frans Dictus
1921 • Alberto Ghirardi
1934 • Joseph Planckaert
1945 • Leif Mortensen
1952 • Alex Van Linden
1960 • Roberto Bressan
1960 • Bernard Chesneau
1962 • Paul Watson
1963 • Juan Rozas
1965 • Jean-Pierre Heynderickx
1967 • José-Manuel Oliveira
1970 • Wilfried Nelissen
1980 • Nick Nuyens
1996 • Jai Hindley

 

Optimized for Chrome - Edge
and Opera browsers.